DECAYED
Showing default

FLOCK 1C 10, 40023 (Decayed)

Orbit data source: Space-Track

FLOCK 1C 10, 40023 was a payload satellite owned by Planet Labs (US) in SSO that was launched on Thu, 19 Jun 2014 UTC via a DNEPR launch vehicle from the Orenburg, Russia (OREN). Payload-class satellites include a variety of spacecraft equipped with specific instruments for various scientific and technological missions. These include communications satellites like Starlink; space stations such as the ISS; scientific satellites like the Hubble; Earth observation satellites from companies like Planet Labs, Umbra, and HawkEye 360; GPS; miniature CubeSats for education and research; and military/defense satellites.

Not visible in the next 10 days
Identifier
40023, 2014-033P
Orbit
Decayed
Country
Flag of USUS
Related business
Manufacturer
Planet Labs
Mission
Decayed Commercial Imaging
Bus & Motor
CUBESAT 3U, Unknown motor
Mass
4.25 kg wet, 4.25 kg dry
Launch date (UTC)
2014-06-19 (11 years ago)
Launch vehicle
DNEPR
Launch site
Orenburg, Russia (OREN)
Object type
Payload
Rocket body
Debris
Shape & HBR
Box + 2 Pan, 1.0 m
Radar Cross Section
0.108 m², Small (<0.1 m²)

Expand to show TLE details & history
Last TLE update: 6 months ago

TLE from 6 months ago
0 FLOCK 1C 10
1 40023U 14033P   25120.25834427  .05176950  28063-5  34834-2 0  9996
2 40023  98.0543 132.6121 0014822 211.1319 148.9089 16.16570610592380
Epoch: 2025-04-30T06:12Z
TLE epoch observation values (Epoch: 2025-04-30T06:12:00.944Z)
Latitude
-0.00009°
Longitude
-178.83806°
Altitude
240.471 km
Speed
7.758 km/s
True Right ascension
08h 50m 26s
True Declination
0° 00' 00"
Sunlit
Object was in daylight at epoch
Visualization orbit readout
Latitude
Unknown
Longitude
Unknown
Altitude
Unknown
Speed
Unknown
Apparent Right ascension
Unknown
Apparent Declination
Unknown
Sunlit
N/A
Visualization observer readout
Local Sidereal Time
18:44:43
Azimuth
Unknown
Elevation
Unknown
Doppler factor
Unknown
Orbital elements
Apogee altitude
235.536 km
Perigee altitude
215.96 km
Semi-major axis
6,603.885 km
Eccentricity
0.00148
Inclination
98.0543°
RAAN
132.6121°
Arg. of periapsis
211.1319°
True anomaly
148.99647°
Mean anomaly
148.9089°
Eccentric anomaly
148.9527°
Mean motion
4.04431 °/min
Orbital period
89.01 mins
BSTAR
0.0034834
Loading maneuver chart data...
Computing Atmospheric mass density...
Loading historical data...
Loading historical data...
Loading historical data...
Loading historical data...
Loading historical data...
Loading historical data...
Loading historical data...

Documentation

Showing up to 5 results
|